Wind_Speed
10 10 8 7 7 7 7 6 7 7 8 8 9 8 9 10 9 8 6 6 7 6 6 5 5 5 5 5 6 6 6 6 6 6 6 6 6 6 6 5 5 5 5 5
13 12 10 10 10 11 10 9 8 9 9 9 10 9 9 9 10 9 8 8 8 8 8 7 6 5 5 5 5 6 6 6 6 6 7 7 7 7 7 7 6 6 6 5
15 13 12 13 13 13 11 10 10 11 11 10 10 11 11 10 10 10 10 10 9 9 9 8 7 6 6 6 6 6 7 7 7 7 8 8 8 8 7 7 6 6 6 6
16 16 15 16 15 13 12 12 12 11 11 12 11 13 13 12 12 11 11 12 10 11 11 10 9 8 8 7 7 7 8 8 8 8 9 9 8 8 8 7 7 7 7 7
17 18 18 18 17 16 14 13 13 13 14 13 11 14 14 14 12 12 13 12 11 12 12 11 10 10 9 8 8 8 9 9 10 10 10 10 9 9 9 9 9 9 9 9
19 18 18 18 17 17 15 13 12 13 14 16 14 15 17 15 15 15 16 14 13 13 13 12 11 12 11 10 9 10 10 10 11 11 11 11 11 11 11 10 10 10 10 10
19 20 19 19 19 17 16 14 13 14 15 16 13 14 19 17 15 17 18 15 14 13 13 13 13 14 13 12 11 11 11 11 12 12 12 12 12 12 12 12 11 11 11 11
20 20 19 20 20 19 18 17 17 16 16 18 14 16 19 17 15 16 16 15 15 15 15 14 15 15 15 15 14 13 12 13 13 13 12 12 13 13 13 13 13 13 13 13
19 21 20 21 20 20 20 19 19 19 18 19 16 15 18 18 18 18 18 18 17 17 17 16 17 17 16 16 16 14 13 14 14 14 14 14 14 14 15 15 15 15 14 15
20 22 21 22 23 22 21 21 19 20 20 20 17 16 17 19 20 20 17 18 18 19 20 19 18 19 18 17 16 15 14 15 16 15 15 16 16 15 15 16 17 17 17 17
24 23 21 22 23 22 21 21 20 20 21 20 20 20 20 21 20 20 20 19 19 20 21 20 19 19 18 17 17 16 16 16 17 17 17 17 18 17 17 18 19 19 19 19
25 24 23 23 22 22 22 21 21 22 23 22 22 23 23 21 19 19 20 21 19 19 18 19 19 19 19 18 17 17 18 18 18 18 18 18 18 18 19 19 19 20 20 20
26 26 24 21 20 23 24 23 23 23 24 25 24 24 23 23 21 21 21 21 21 19 19 19 19 19 19 18 18 18 17 17 18 19 19 19 19 19 19 19 20 21 21 20
28 27 25 24 23 23 26 26 24 23 23 25 25 25 23 24 23 22 23 23 23 21 20 21 20 20 20 19 18 18 17 17 18 18 19 19 19 19 20 20 20 21 21 21
27 27 27 27 26 24 25 26 25 24 25 25 24 26 26 26 24 24 25 24 24 23 21 21 21 20 20 20 20 19 18 18 19 19 20 20 20 21 21 21 21 21 22 22
28 28 29 30 27 25 25 25 24 24 25 27 26 26 26 27 26 26 26 26 24 23 22 23 24 23 22 22 21 20 20 20 20 21 21 22 22 21 21 21 22 21 21 22
28 29 31 30 28 28 28 26 25 26 26 28 29 29 27 27 25 25 28 28 28 27 26 25 25 25 25 23 23 21 21 21 22 23 23 23 23 22 22 22 21 21 22 22
30 31 31 31 29 30 29 27 26 26 26 27 27 27 28 27 26 28 30 29 28 28 27 27 26 26 25 24 23 23 23 23 23 23 23 24 23 22 22 22 22 22 22 23
31 32 32 31 30 30 28 28 27 27 29 28 28 28 28 29 29 30 32 31 30 29 29 29 28 27 27 26 25 25 25 25 25 24 24 24 23 23 22 22 22 23 23 23
31 32 33 33 33 31 31 29 27 29 32 31 30 31 31 31 31 31 32 32 29 29 28 29 29 29 29 28 27 28 28 27 26 25 25 24 24 23 23 23 23 24 24 25
31 31 33 33 34 33 33 30 30 31 33 33 33 33 32 32 32 32 32 31 30 30 30 29 30 30 28 27 27 27 27 27 26 25 25 24 24 24 24 24 24 24 25 25
30 30 32 33 35 36 34 31 32 32 33 36 34 33 33 33 33 33 32 31 31 31 31 30 30 29 28 28 27 27 27 27 26 26 25 26 25 25 25 25 26 26 26 26
31 31 32 33 35 36 35 36 34 33 34 36 36 35 34 34 35 34 32 31 32 31 30 30 30 29 29 29 28 27 27 27 26 26 25 26 26 27 27 27 27 27 27 28
32 34 35 36 38 37 35 34 36 36 37 36 36 36 35 35 34 34 34 32 32 31 31 31 31 29 29 29 29 28 27 27 27 27 27 27 27 27 28 27 28 28 28 28
35 36 37 38 38 38 38 37 36 36 37 38 37 37 37 36 36 36 36 34 33 32 33 31 30 30 29 29 29 28 28 28 28 28 27 28 28 28 28 28 28 28 29 29
34 35 36 37 39 39 39 38 37 37 38 38 37 38 38 37 37 37 35 34 34 33 32 32 32 32 31 30 30 29 29 29 30 30 29 29 29 29 29 29 29 29 30 30
Wind_Direction
224 225 219 220 233 233 227 226 243 264 280 289 294 306 312 318 322 323 328 327 325 331 335 340 345 349 355 359 1 1 0 360 1 1 357 352 348 346 343 342 340 343 343 341
230 236 232 225 233 232 229 234 249 259 273 282 290 289 291 297 310 313 314 311 309 313 315 324 329 331 332 336 342 346 349 348 347 343 341 341 341 339 336 335 333 331 326 323
232 234 234 236 238 235 239 242 249 255 264 269 277 281 276 282 291 299 300 301 299 301 305 301 306 313 315 318 323 330 335 335 334 333 334 333 331 330 331 329 324 322 320 315
233 236 235 238 242 243 247 247 251 259 263 267 272 280 285 288 293 290 295 296 293 293 295 296 298 301 306 308 312 318 321 324 325 324 324 325 324 325 326 327 325 320 317 314
232 237 240 242 244 243 241 247 253 257 260 266 269 273 277 282 284 293 292 288 288 286 287 290 294 294 301 299 301 307 312 315 316 318 317 318 317 318 320 320 318 316 315 315
232 236 239 243 243 244 243 250 259 259 261 261 260 264 271 268 279 288 289 284 283 280 280 279 284 291 293 293 295 298 303 307 311 314 313 311 310 311 313 312 311 311 312 312
237 239 241 241 239 244 247 249 255 261 261 266 262 260 266 264 269 278 280 281 280 277 276 277 278 284 289 291 292 293 296 300 305 310 309 307 305 305 305 305 305 308 309 310
242 243 245 247 241 241 243 240 244 254 263 273 274 267 270 275 269 272 273 274 274 271 271 275 278 281 286 289 290 288 290 293 297 302 304 303 303 301 299 300 303 304 304 306
238 246 246 248 248 244 239 240 243 249 258 268 268 266 271 269 272 271 271 271 271 272 272 276 279 279 280 283 284 282 283 286 288 292 296 298 300 300 297 295 297 300 301 304
235 242 241 246 245 244 243 238 241 245 253 260 263 259 258 261 269 271 269 270 273 275 275 275 274 275 277 277 277 278 279 281 283 287 291 293 294 295 295 294 293 297 300 303
234 239 243 247 246 243 244 239 241 245 247 253 261 264 264 260 263 268 266 266 270 273 274 274 271 271 271 272 274 275 276 277 280 283 287 291 290 293 294 293 294 294 296 299
233 234 240 244 251 249 242 239 240 247 250 249 256 264 265 267 263 265 267 267 268 269 270 271 271 270 272 272 273 274 275 276 278 282 286 287 290 292 294 294 293 294 295 297
231 232 237 240 243 248 249 245 241 244 248 250 252 261 266 269 270 270 268 266 265 264 268 267 267 271 273 272 271 272 276 278 281 287 290 292 289 291 293 293 291 293 294 293
232 232 232 238 238 237 243 245 242 242 245 247 247 253 257 263 265 266 269 269 270 266 268 268 266 267 270 270 271 273 275 278 281 286 290 292 293 293 294 294 292 293 294 292
236 236 234 234 238 240 243 246 246 246 247 248 253 253 254 259 260 263 264 267 267 264 268 268 267 266 268 269 269 271 273 277 281 283 286 289 290 292 293 293 294 293 293 293
235 235 235 237 238 240 244 247 248 250 251 248 249 253 254 257 257 262 264 267 268 264 263 265 266 266 265 265 266 268 272 277 280 283 285 287 289 290 291 291 292 293 292 293
237 239 240 240 241 242 245 247 251 251 251 250 250 250 254 258 260 262 263 264 266 267 268 267 265 264 262 263 263 267 271 275 280 282 285 287 287 287 288 290 292 295 294 294
241 240 241 243 244 244 243 246 248 250 251 250 254 259 256 257 260 264 263 264 265 265 265 265 263 263 261 260 261 263 270 274 277 281 284 286 286 287 290 290 290 294 294 294
243 244 244 244 247 250 250 249 248 250 253 251 250 252 256 256 258 259 263 264 266 265 265 265 262 261 262 261 261 264 268 272 275 279 281 283 283 285 287 288 289 293 295 294
248 247 246 246 247 248 248 250 248 248 251 251 252 253 254 256 256 257 261 265 266 265 264 264 264 265 264 262 263 265 268 272 276 277 277 278 279 281 284 286 288 291 294 296
247 248 247 248 249 250 250 252 250 251 253 253 253 255 256 254 257 258 259 263 266 264 263 264 265 266 264 265 268 269 270 272 274 274 274 275 277 278 281 283 286 289 291 293
245 247 249 249 248 248 248 249 248 249 252 254 255 255 254 254 256 257 259 262 263 261 263 263 263 264 264 265 266 268 269 271 272 273 273 274 275 278 280 282 285 287 289 291
242 242 245 247 248 250 250 248 248 248 251 255 257 257 256 255 255 257 258 260 261 258 260 260 262 262 263 263 264 266 267 269 271 272 274 276 277 279 281 284 286 287 288 290
243 242 242 245 248 250 250 250 250 249 250 255 256 256 254 254 255 256 256 257 257 259 260 261 262 261 263 265 266 266 267 268 270 272 273 276 279 280 282 284 286 289 290 290
245 245 246 248 249 249 247 248 248 249 251 254 256 255 253 254 255 256 256 256 257 258 259 260 260 261 262 263 265 266 267 269 270 272 274 276 278 280 282 284 287 289 290 288
248 247 249 250 251 251 249 248 248 249 251 254 255 255 255 255 256 256 257 257 255 256 256 258 259 259 260 262 264 264 264 266 269 271 272 274 276 278 281 283 285 287 289 289
Height
5912 5914 5915 5917 5918 5920 5922 5923 5923 5924 5923 5923 5922 5921 5919 5918 5918 5916 5916 5916 5915 5914 5914 5913 5913 5912 5912 5912 5911 5911 5911 5910 5910 5909 5909 5908 5908 5907 5906 5906 5905 5905 5905 5904
5910 5912 5914 5916 5917 5919 5920 5921 5921 5922 5922 5921 5921 5920 5919 5918 5917 5916 5916 5915 5915 5914 5913 5913 5912 5912 5912 5912 5912 5911 5911 5911 5910 5910 5909 5909 5908 5907 5906 5906 5905 5904 5904 5904
5908 5911 5912 5913 5915 5916 5917 5919 5920 5921 5921 5920 5920 5919 5917 5917 5916 5916 5915 5914 5913 5913 5912 5912 5911 5912 5912 5912 5911 5911 5911 5911 5910 5910 5909 5908 5908 5907 5906 5905 5904 5904 5903 5903
5905 5908 5909 5910 5912 5914 5915 5917 5918 5918 5918 5918 5918 5917 5915 5915 5914 5914 5914 5913 5912 5912 5911 5911 5911 5911 5911 5911 5911 5911 5910 5910 5910 5909 5909 5908 5907 5906 5905 5905 5904 5903 5902 5902
5902 5905 5906 5908 5910 5911 5912 5914 5914 5915 5915 5915 5915 5915 5914 5913 5911 5911 5912 5911 5909 5910 5910 5910 5909 5909 5909 5910 5910 5910 5909 5909 5909 5908 5908 5907 5906 5905 5905 5904 5903 5902 5901 5901
5898 5901 5903 5904 5906 5907 5909 5911 5911 5912 5912 5912 5913 5913 5911 5910 5910 5909 5910 5909 5909 5909 5908 5908 5908 5908 5907 5907 5908 5908 5908 5908 5907 5907 5906 5906 5905 5904 5903 5902 5901 5901 5900 5899
5895 5897 5898 5901 5902 5904 5906 5908 5909 5909 5908 5908 5909 5909 5908 5907 5908 5908 5907 5906 5906 5906 5906 5906 5906 5906 5905 5905 5906 5906 5906 5906 5906 5905 5905 5904 5903 5902 5901 5900 5900 5899 5898 5897
5891 5893 5895 5896 5898 5900 5902 5905 5906 5907 5907 5905 5905 5905 5905 5904 5904 5903 5903 5903 5903 5904 5903 5903 5903 5904 5903 5903 5904 5904 5904 5904 5904 5903 5902 5902 5901 5900 5899 5898 5897 5896 5896 5895
5887 5890 5892 5892 5894 5896 5898 5900 5902 5903 5903 5904 5903 5902 5902 5900 5900 5900 5901 5900 5900 5900 5901 5900 5900 5900 5901 5901 5901 5901 5901 5901 5900 5900 5900 5899 5899 5898 5897 5896 5895 5894 5893 5893
5882 5884 5886 5888 5889 5890 5893 5895 5897 5898 5898 5898 5900 5899 5898 5897 5898 5897 5897 5897 5897 5897 5897 5897 5897 5897 5897 5897 5897 5897 5898 5897 5897 5897 5896 5896 5896 5895 5894 5893 5892 5891 5890 5889
5877 5879 5881 5883 5883 5885 5887 5890 5891 5893 5895 5896 5896 5898 5894 5892 5892 5893 5892 5893 5893 5893 5893 5893 5893 5893 5892 5893 5893 5894 5894 5894 5893 5893 5893 5893 5892 5891 5890 5889 5888 5888 5887 5886
5871 5873 5875 5877 5879 5880 5881 5884 5886 5888 5889 5890 5891 5893 5889 5887 5887 5886 5887 5888 5888 5889 5889 5889 5889 5889 5889 5889 5889 5889 5889 5889 5889 5889 5888 5888 5887 5887 5886 5885 5885 5884 5883 5882
5864 5867 5869 5872 5876 5876 5876 5878 5880 5882 5884 5885 5887 5888 5885 5883 5884 5883 5882 5883 5883 5884 5884 5884 5884 5884 5884 5885 5885 5885 5885 5885 5885 5885 5884 5884 5883 5882 5882 5881 5880 5880 5879 5878
5856 5860 5863 5866 5868 5869 5869 5871 5873 5875 5877 5878 5880 5880 5879 5879 5879 5879 5877 5877 5879 5878 5879 5880 5880 5880 5880 5881 5881 5881 5881 5881 5881 5881 5880 5880 5879 5878 5878 5877 5876 5875 5874 5873
5850 5853 5855 5858 5860 5862 5864 5866 5867 5868 5870 5873 5874 5875 5874 5873 5872 5873 5873 5872 5873 5873 5873 5875 5875 5876 5876 5876 5877 5877 5877 5877 5877 5877 5876 5875 5875 5874 5873 5872 5871 5870 5869 5868
5842 5845 5847 5849 5852 5855 5857 5858 5861 5863 5864 5866 5866 5867 5868 5866 5867 5866 5867 5866 5866 5866 5867 5869 5870 5870 5871 5871 5872 5872 5872 5872 5872 5872 5871 5871 5870 5869 5868 5867 5866 5864 5863 5862
5834 5837 5839 5841 5845 5847 5850 5853 5855 5856 5858 5859 5860 5861 5859 5859 5860 5860 5860 5860 5861 5861 5862 5863 5864 5863 5864 5865 5866 5867 5867 5867 5867 5866 5866 5865 5865 5864 5863 5862 5861 5859 5858 5857
5827 5829 5831 5834 5837 5838 5844 5846 5848 5848 5850 5851 5851 5852 5852 5853 5854 5854 5853 5852 5853 5855 5856 5856 5857 5856 5857 5858 5860 5861 5861 5861 5861 5861 5861 5860 5859 5858 5857 5856 5856 5854 5853 5851
5820 5822 5824 5827 5828 5830 5835 5838 5840 5841 5841 5843 5844 5845 5846 5846 5848 5847 5845 5845 5845 5848 5849 5849 5849 5850 5850 5852 5853 5854 5855 5855 5856 5855 5855 5854 5854 5853 5852 5851 5850 5849 5847 5846
5812 5814 5816 5818 5820 5824 5828 5830 5831 5833 5832 5834 5836 5837 5838 5838 5839 5839 5839 5838 5839 5841 5842 5842 5843 5844 5845 5846 5847 5848 5849 5849 5849 5849 5849 5848 5848 5847 5846 5845 5844 5843 5842 5840
5803 5805 5807 5809 5811 5815 5818 5821 5823 5825 5824 5825 5826 5827 5828 5829 5830 5830 5831 5832 5833 5833 5834 5835 5836 5837 5838 5838 5840 5841 5842 5842 5842 5842 5842 5842 5841 5841 5840 5839 5838 5837 5836 5834
5794 5797 5799 5801 5802 5807 5809 5811 5813 5814 5814 5815 5816 5817 5819 5820 5821 5821 5823 5825 5826 5826 5826 5828 5829 5830 5831 5832 5834 5834 5835 5835 5835 5835 5835 5835 5834 5834 5833 5833 5832 5830 5829 5827
5785 5788 5790 5792 5794 5796 5798 5801 5802 5804 5805 5806 5807 5809 5810 5811 5812 5813 5815 5816 5817 5818 5819 5820 5822 5823 5824 5825 5826 5827 5827 5828 5828 5828 5828 5828 5827 5827 5827 5826 5825 5823 5822 5820
5775 5776 5779 5781 5783 5785 5787 5790 5792 5794 5795 5795 5797 5798 5800 5801 5803 5804 5806 5808 5809 5809 5811 5813 5814 5815 5817 5818 5818 5819 5820 5820 5821 5821 5821 5821 5820 5820 5819 5819 5818 5817 5815 5813
5766 5767 5769 5771 5773 5774 5776 5778 5780 5782 5784 5785 5785 5787 5789 5790 5793 5795 5797 5799 5800 5802 5803 5805 5806 5808 5809 5810 5811 5812 5812 5813 5813 5814 5814 5813 5813 5812 5812 5812 5811 5810 5808 5806
5755 5757 5759 5760 5761 5762 5765 5767 5770 5772 5773 5774 5775 5777 5779 5781 5783 5785 5787 5788 5790 5793 5794 5796 5798 5799 5801 5802 5803 5803 5804 5805 5805 5806 5806 5806 5805 5805 5805 5804 5803 5802 5800 5798